Weather History for Pueblo, CO

Change the Weather History Date:

Monday, September 10, 2012

  Actual Average Record
Temperature  
Mean Temperature 70 °F 67 °F  
Max Temperature 93 °F 84 °F 99 °F (1979)
Min Temperature 46 °F 50 °F 33 °F (1898)
Degree Days  
Heating Degree Days 0 1  
Month to date heating degree days 0 10  
Since 1 July heating degree days 0 15  
Cooling Degree Days 5 4  
Month to date cooling degree days 81 48  
Year to date cooling degree days 1297 859  
Growing Degree Days 20 (Base 50)    
Moisture  
Dew Point 26 °F    
Average Humidity 27    
Maximum Humidity 45    
Minimum Humidity 9    
Precipitation  
Precipitation 0.00 in 0.03 in 0.46 in (1940)
Month to date precipitation 0.01 0.34  
Year to date precipitation 3.69 10.57  
Snow  
Snow 0.00 in 0.00 in T in (1898)
Month to date snowfall 0.0 0.0  
Since 1 July snowfall 0.0 0.0  
Since 1 September snowfall 0.0 0.0  
Snow Depth 0.00 in    
Sea Level Pressure  
Sea Level Pressure 29.84 in    
Wind  
Wind Speed 5 mph (East)    
Max Wind Speed 13 mph    
Max Gust Speed 16 mph    
Visibility 10 miles    
Events      
T = Trace of Precipitation, MM = Missing Value Source: NWS Daily Summary

Daily Weather History Graph

Daily Weather History Graph

Search for Another Location

Airport:

Trip Planner

Search our weather history database for the weather conditions in past years. The results will help you decide how hot, cold, wet, or windy it might be!

Date:

Astronomy

Sep. 10, 2012 Rise Set
Actual Time 6:35 AM MDT 7:13 PM MDT
Civil Twilight 6:09 AM MDT 7:39 PM MDT
Nautical Twilight 5:37 AM MDT 8:11 PM MDT
Astronomical Twilight 5:05 AM MDT 8:43 PM MDT
Moon 1:02 AM MDT (9/10) 3:41 PM MDT (9/10)
Length of Visible Light 13h 30m
Length of Day
12h 37m
Waning Crescent, 29% of the Moon is Illuminated
Sep 10
Waning Crescent
Sep 15
New
Sep 22
First Quarter
Sep 29
Full
Oct 8
Last Quarter

Hourly Weather History & Observations

Time (MDT) Temp. Dew Point Humidity Pressure Visibility Wind Dir Wind Speed Gust Speed Precip Events Conditions
12:53 AM 59.0 °F 28.0 °F 31% 29.93 in 10.0 mi NE 3.5 mph - N/A   Clear
1:53 AM 54.0 °F 28.0 °F 37% 29.94 in 10.0 mi West 5.8 mph - N/A   Clear
2:53 AM 55.0 °F 27.0 °F 34% 29.93 in 10.0 mi North 4.6 mph - N/A   Clear
3:53 AM 50.0 °F 26.1 °F 39% 29.94 in 10.0 mi WSW 6.9 mph - N/A   Clear
4:53 AM 48.0 °F 24.1 °F 39% 29.94 in 10.0 mi Calm Calm - N/A   Clear
5:53 AM 51.1 °F 27.0 °F 39% 29.93 in 10.0 mi WSW 4.6 mph - N/A   Clear
6:53 AM 46.9 °F 26.1 °F 44% 29.96 in 10.0 mi West 6.9 mph - N/A   Clear
7:53 AM 57.9 °F 28.9 °F 33% 29.96 in 10.0 mi Calm Calm - N/A   Clear
8:53 AM 66.0 °F 28.9 °F 25% 29.93 in 10.0 mi Variable 3.5 mph - N/A   Clear
9:53 AM 73.0 °F 30.0 °F 20% 29.91 in 10.0 mi Variable 4.6 mph - N/A   Clear
10:53 AM 84.9 °F 32.0 °F 15% 29.87 in 10.0 mi Calm Calm - N/A   Clear
11:53 AM 89.1 °F 26.1 °F 10% 29.84 in 10.0 mi NW 4.6 mph - N/A   Clear
12:53 PM 91.0 °F 26.1 °F 10% 29.82 in 10.0 mi Variable 5.8 mph - N/A   Clear
1:53 PM 91.0 °F 26.1 °F 10% 29.80 in 10.0 mi Variable 5.8 mph - N/A   Clear
2:53 PM 91.0 °F 24.1 °F 9% 29.78 in 10.0 mi South 8.1 mph - N/A   Clear
3:53 PM 91.9 °F 24.1 °F 9% 29.77 in 10.0 mi Calm Calm - N/A   Clear
4:53 PM 91.0 °F 25.0 °F 9% 29.75 in 10.0 mi ESE 4.6 mph - N/A   Clear
5:53 PM 90.0 °F 26.1 °F 10% 29.73 in 10.0 mi SE 10.4 mph - N/A   Clear
6:53 PM 87.1 °F 27.0 °F 11% 29.74 in 10.0 mi ESE 9.2 mph - N/A   Clear
7:53 PM 77.0 °F 26.1 °F 15% 29.74 in 10.0 mi East 8.1 mph - N/A   Clear
8:53 PM 73.0 °F 26.1 °F 17% 29.75 in 10.0 mi ESE 5.8 mph - N/A   Clear
9:53 PM 68.0 °F 21.9 °F 17% 29.76 in 10.0 mi ENE 5.8 mph - N/A   Clear
10:53 PM 70.0 °F 23.0 °F 17% 29.71 in 10.0 mi ENE 5.8 mph - N/A   Clear
11:53 PM 64.0 °F 21.9 °F 20% 29.73 in 10.0 mi Calm Calm - N/A   Clear